�������l�o���
Date,Time,MP-1(��Sv/h),MP-2(��Sv/h),MP-3(��Sv/h),MP-4(��Sv/h),MP-5(��Sv/h),MP-6(��Sv/h),MP-7(��Sv/h),����,����(m/s),���J
2016/02/08,00:00,0.451,0.262,0.474,0.428,0.393,0.216,0.189,�k�k��,1.0,��
2016/02/08,00:10,0.449,0.263,0.472,0.430,0.394,0.217,0.190,-,CALM,��
2016/02/08,00:20,0.448,0.263,0.471,0.430,0.395,0.216,0.190,�k�k��,1.0,��
2016/02/08,00:30,0.449,0.264,0.471,0.427,0.393,0.218,0.190,�k�k��,0.8,��
2016/02/08,00:40,0.450,0.262,0.472,0.428,0.394,0.216,0.189,��,0.9,��
2016/02/08,00:50,0.450,0.263,0.471,0.428,0.394,0.216,0.190,��,1.7,��
2016/02/08,01:00,0.448,0.263,0.473,0.430,0.394,0.217,0.191,���k��,1.8,��
2016/02/08,01:10,0.449,0.262,0.471,0.428,0.393,0.215,0.189,�k�k��,1.6,��
2016/02/08,01:20,0.449,0.263,0.472,0.427,0.392,0.217,0.190,-,CALM,��
2016/02/08,01:30,0.449,0.263,0.472,0.428,0.395,0.217,0.190,�k�k��,0.7,��
2016/02/08,01:40,0.448,0.263,0.473,0.428,0.394,0.217,0.190,�k��,1.0,��
2016/02/08,01:50,0.449,0.263,0.471,0.428,0.391,0.215,0.190,-,CALM,��
2016/02/08,02:00,0.449,0.262,0.470,0.428,0.393,0.216,0.191,-,CALM,��
2016/02/08,02:10,0.450,0.263,0.472,0.426,0.393,0.217,0.190,�쐼,1.4,��
2016/02/08,02:20,0.450,0.264,0.471,0.429,0.391,0.216,0.190,���쐼,1.7,��
2016/02/08,02:30,0.450,0.262,0.473,0.428,0.393,0.216,0.190,���쐼,1.1,��
2016/02/08,02:40,0.450,0.263,0.472,0.429,0.395,0.216,0.190,-,CALM,��
2016/02/08,02:50,0.450,0.263,0.472,0.427,0.393,0.215,0.191,�쐼,1.2,��
2016/02/08,03:00,0.451,0.263,0.471,0.428,0.393,0.216,0.190,-,CALM,��
2016/02/08,03:10,0.449,0.263,0.472,0.427,0.395,0.217,0.190,���쐼,1.2,��
2016/02/08,03:20,0.448,0.262,0.473,0.428,0.395,0.216,0.190,���쐼,1.2,��
2016/02/08,03:30,0.449,0.262,0.473,0.428,0.394,0.217,0.189,���쐼,0.7,��
2016/02/08,03:40,0.449,0.263,0.473,0.430,0.394,0.217,0.190,��,0.8,��
2016/02/08,03:50,0.450,0.261,0.471,0.428,0.394,0.217,0.190,��,0.7,��
2016/02/08,04:00,0.449,0.262,0.471,0.428,0.392,0.216,0.190,��,1.1,��
2016/02/08,04:10,0.450,0.263,0.474,0.428,0.392,0.217,0.190,-,CALM,��
2016/02/08,04:20,0.448,0.263,0.474,0.428,0.393,0.216,0.190,-,CALM,��
2016/02/08,04:30,0.447,0.263,0.472,0.427,0.394,0.216,0.189,���k��,0.6,��
2016/02/08,04:40,0.448,0.261,0.473,0.428,0.392,0.217,0.190,�k��,1.2,��
2016/02/08,04:50,0.450,0.261,0.473,0.429,0.393,0.217,0.189,�k�k��,1.5,��
2016/02/08,05:00,0.449,0.263,0.471,0.427,0.395,0.216,0.189,�k��,4.7,��
2016/02/08,05:10,0.449,0.264,0.472,0.427,0.392,0.216,0.190,�k��,4.2,��
2016/02/08,05:20,0.448,0.264,0.472,0.428,0.391,0.216,0.190,���k��,2.6,��
2016/02/08,05:30,0.449,0.263,0.473,0.428,0.394,0.217,0.188,���쐼,3.1,��
2016/02/08,05:40,0.448,0.262,0.473,0.429,0.394,0.216,0.190,���쐼,3.9,��
2016/02/08,05:50,0.448,0.262,0.473,0.428,0.393,0.216,0.189,���쐼,4.8,��
2016/02/08,06:00,0.448,0.263,0.474,0.428,0.394,0.216,0.189,��,4.8,��
2016/02/08,06:10,0.449,0.263,0.473,0.428,0.392,0.217,0.189,��,4.3,��
2016/02/08,06:20,0.449,0.262,0.472,0.427,0.394,0.217,0.190,��,3.5,��
2016/02/08,06:30,0.449,0.262,0.470,0.428,0.393,0.215,0.190,��,3.6,��
2016/02/08,06:40,0.447,0.262,0.471,0.426,0.394,0.216,0.190,��,3.0,��
2016/02/08,06:50,0.448,0.261,0.473,0.429,0.392,0.216,0.190,��,3.0,��
2016/02/08,07:00,0.449,0.262,0.472,0.428,0.392,0.216,0.190,���k��,2.7,��
2016/02/08,07:10,0.450,0.262,0.472,0.428,0.392,0.216,0.189,���k��,1.6,��
2016/02/08,07:20,0.449,0.262,0.471,0.427,0.393,0.216,0.190,�쐼,0.8,��
2016/02/08,07:30,0.448,0.262,0.470,0.428,0.391,0.214,0.191,���쐼,0.7,��
2016/02/08,07:40,0.447,0.262,0.473,0.427,0.392,0.217,0.189,��,1.0,��
2016/02/08,07:50,0.450,0.262,0.472,0.427,0.393,0.216,0.188,��,1.7,��
2016/02/08,08:00,0.448,0.262,0.473,0.427,0.391,0.217,0.190,���쐼,3.0,��
2016/02/08,08:10,0.448,0.262,0.471,0.426,0.391,0.215,0.189,���쐼,2.9,��
2016/02/08,08:20,0.447,0.261,0.470,0.426,0.391,0.216,0.190,�쐼,3.0,��
2016/02/08,08:30,0.447,0.260,0.471,0.426,0.393,0.216,0.189,���쐼,3.6,��
2016/02/08,08:40,0.448,0.261,0.473,0.428,0.391,0.216,0.189,���쐼,3.2,��
2016/02/08,08:50,0.448,0.261,0.470,0.424,0.391,0.215,0.189,���쐼,2.2,��
2016/02/08,09:00,0.449,0.262,0.472,0.427,0.391,0.216,0.189,���쐼,0.7,��
2016/02/08,09:10,0.450,0.262,0.471,0.427,0.392,0.214,0.189,��,0.8,��
2016/02/08,09:20,0.449,0.260,0.474,0.424,0.394,0.216,0.189,��쓌,1.0,��
2016/02/08,09:30,0.449,0.263,0.472,0.428,0.392,0.215,0.188,��,2.1,��
2016/02/08,09:40,0.448,0.261,0.471,0.426,0.394,0.216,0.189,�쓌,2.1,��
2016/02/08,09:50,0.450,0.261,0.474,0.427,0.392,0.216,0.188,�쓌,2.6,��
2016/02/08,10:00,0.451,0.261,0.472,0.429,0.392,0.215,0.188,�쓌,3.4,��
2016/02/08,10:10,0.447,0.260,0.471,0.427,0.392,0.216,0.189,��쓌,4.3,��
2016/02/08,10:20,0.450,0.262,0.471,0.427,0.392,0.217,0.189,��쓌,3.8,��
2016/02/08,10:30,0.445,0.262,0.474,0.429,0.392,0.217,0.189,��쓌,3.6,��
2016/02/08,10:40,0.448,0.261,0.472,0.426,0.394,0.215,0.190,��쓌,3.8,��
2016/02/08,10:50,0.447,0.262,0.469,0.428,0.393,0.216,0.189,��쓌,3.3,��
2016/02/08,11:00,0.448,0.263,0.471,0.429,0.393,0.217,0.189,�쓌,3.8,��
2016/02/08,11:10,0.449,0.261,0.471,0.427,0.396,0.217,0.190,��쓌,3.9,��
2016/02/08,11:20,0.448,0.263,0.471,0.429,0.393,0.216,0.191,��쓌,4.5,��
2016/02/08,11:30,0.450,0.262,0.471,0.428,0.395,0.216,0.188,��쓌,4.4,��
2016/02/08,11:40,0.448,0.263,0.470,0.428,0.396,0.217,0.188,�쓌,6.0,��
2016/02/08,11:50,0.451,0.263,0.469,0.430,0.394,0.216,0.190,��쓌,5.7,��
2016/02/08,12:00,0.448,0.262,0.473,0.428,0.396,0.216,0.190,��쓌,5.6,��
2016/02/08,12:10,0.448,0.261,0.469,0.429,0.395,0.217,0.191,�쓌,5.7,��
2016/02/08,12:20,0.450,0.262,0.471,0.430,0.393,0.216,0.190,�쓌,5.3,��
2016/02/08,12:30,0.449,0.261,0.470,0.428,0.394,0.217,0.189,�쓌,5.7,��
2016/02/08,12:40,0.450,0.264,0.470,0.430,0.393,0.217,0.188,��쓌,6.0,��
2016/02/08,12:50,0.449,0.262,0.472,0.428,0.395,0.216,0.189,��쓌,6.3,��
2016/02/08,13:00,0.450,0.263,0.469,0.427,0.395,0.216,0.190,��쓌,5.4,��
2016/02/08,13:10,0.449,0.262,0.473,0.431,0.393,0.217,0.190,��쓌,5.7,��
2016/02/08,13:20,0.451,0.262,0.469,0.430,0.395,0.217,0.190,��쓌,5.5,��
2016/02/08,13:30,0.450,0.262,0.471,0.429,0.394,0.216,0.189,��,5.8,��
2016/02/08,13:40,0.449,0.263,0.473,0.430,0.395,0.218,0.190,��,6.4,��
2016/02/08,13:50,0.453,0.262,0.470,0.428,0.396,0.216,0.189,��,6.4,��
2016/02/08,14:00,0.451,0.264,0.473,0.431,0.394,0.217,0.190,��쓌,5.9,��
2016/02/08,14:10,0.449,0.263,0.471,0.430,0.394,0.217,0.189,��쓌,5.8,��
2016/02/08,14:20,0.453,0.261,0.471,0.429,0.397,0.216,0.189,��쓌,5.2,��
2016/02/08,14:30,0.451,0.263,0.476,0.430,0.395,0.216,0.191,��,5.6,��
2016/02/08,14:40,0.450,0.262,0.471,0.431,0.395,0.217,0.191,��,5.1,��
2016/02/08,14:50,0.451,0.263,0.472,0.429,0.396,0.216,0.188,��,5.8,��
2016/02/08,15:00,0.451,0.264,0.474,0.431,0.396,0.218,0.189,��,5.7,��
2016/02/08,15:10,0.450,0.264,0.473,0.431,0.395,0.216,0.190,��쓌,5.6,��
2016/02/08,15:20,0.451,0.262,0.473,0.429,0.395,0.216,0.190,��,6.2,��
2016/02/08,15:30,0.450,0.264,0.473,0.430,0.395,0.215,0.191,��쓌,5.5,��
2016/02/08,15:40,0.451,0.264,0.472,0.432,0.394,0.217,0.190,��,5.7,��
2016/02/08,15:50,0.452,0.264,0.471,0.431,0.395,0.217,0.189,��,3.8,��
2016/02/08,16:00,0.452,0.264,0.474,0.429,0.396,0.217,0.190,��쐼,3.4,��
2016/02/08,16:10,0.452,0.264,0.474,0.429,0.396,0.217,0.189,��쐼,4.6,�L
2016/02/08,16:20,0.452,0.262,0.473,0.431,0.395,0.217,0.190,��쐼,3.2,��
2016/02/08,16:30,0.451,0.263,0.474,0.431,0.397,0.217,0.190,��쐼,2.8,��
2016/02/08,16:40,0.451,0.264,0.474,0.428,0.395,0.216,0.189,��쐼,1.9,��
2016/02/08,16:50,0.452,0.263,0.470,0.432,0.394,0.217,0.190,�쐼,2.0,��
2016/02/08,17:00,0.452,0.262,0.473,0.430,0.396,0.217,0.190,��쐼,3.2,�L
2016/02/08,17:10,0.450,0.262,0.472,0.429,0.394,0.218,0.190,�쐼,2.5,�L
2016/02/08,17:20,0.452,0.263,0.472,0.431,0.394,0.217,0.190,���쐼,1.6,��
2016/02/08,17:30,0.453,0.263,0.474,0.431,0.394,0.216,0.190,���쐼,2.6,��
2016/02/08,17:40,0.450,0.264,0.475,0.431,0.395,0.217,0.189,���쐼,1.3,��
2016/02/08,17:50,0.451,0.263,0.473,0.430,0.395,0.216,0.190,��,0.8,��
2016/02/08,18:00,0.452,0.263,0.472,0.430,0.395,0.217,0.190,���쐼,0.7,��
2016/02/08,18:10,0.451,0.263,0.473,0.431,0.395,0.216,0.190,���쐼,0.6,��
2016/02/08,18:20,0.452,0.264,0.474,0.429,0.396,0.217,0.190,���쐼,0.8,��
2016/02/08,18:30,0.452,0.263,0.472,0.429,0.394,0.217,0.189,�쐼,0.6,��
2016/02/08,18:40,0.451,0.265,0.473,0.430,0.392,0.217,0.190,�쐼,1.4,��
2016/02/08,18:50,0.451,0.264,0.476,0.429,0.394,0.217,0.191,���쐼,0.9,��
2016/02/08,19:00,0.452,0.263,0.474,0.429,0.395,0.217,0.189,�쐼,1.4,�L
2016/02/08,19:10,0.452,0.263,0.473,0.431,0.395,0.217,0.190,�쐼,1.8,��
2016/02/08,19:20,0.450,0.263,0.474,0.431,0.394,0.216,0.190,�쐼,1.7,��
2016/02/08,19:30,0.451,0.265,0.474,0.431,0.395,0.218,0.189,���쐼,1.1,��
2016/02/08,19:40,0.453,0.263,0.473,0.431,0.395,0.216,0.191,���쐼,2.0,��
2016/02/08,19:50,0.452,0.263,0.473,0.430,0.395,0.218,0.190,���쐼,1.3,��
2016/02/08,20:00,0.449,0.264,0.475,0.431,0.393,0.217,0.189,���쐼,1.2,��
2016/02/08,20:10,0.452,0.264,0.475,0.430,0.395,0.216,0.189,���쐼,1.7,��
2016/02/08,20:20,0.451,0.263,0.473,0.431,0.396,0.216,0.190,���쐼,1.7,��
2016/02/08,20:30,0.452,0.264,0.473,0.430,0.396,0.217,0.190,���쐼,1.4,��
2016/02/08,20:40,0.452,0.262,0.474,0.432,0.394,0.217,0.191,��,1.5,��
2016/02/08,20:50,0.451,0.262,0.473,0.430,0.393,0.217,0.190,���쐼,1.1,��
2016/02/08,21:00,0.451,0.264,0.473,0.429,0.396,0.217,0.189,�k�k��,1.4,��
2016/02/08,21:10,0.450,0.264,0.474,0.429,0.395,0.217,0.190,���k��,1.8,��
2016/02/08,21:20,0.452,0.264,0.476,0.430,0.394,0.218,0.189,���k��,1.6,��
2016/02/08,21:30,0.451,0.264,0.474,0.431,0.395,0.217,0.190,��,2.0,��
2016/02/08,21:40,0.451,0.263,0.474,0.430,0.395,0.216,0.190,��,2.0,��
2016/02/08,21:50,0.451,0.263,0.473,0.430,0.394,0.218,0.189,���쐼,1.7,��
2016/02/08,22:00,0.450,0.264,0.474,0.431,0.395,0.218,0.190,��,1.4,��
2016/02/08,22:10,0.452,0.264,0.474,0.430,0.395,0.217,0.189,���쐼,0.7,��
2016/02/08,22:20,0.451,0.264,0.474,0.431,0.396,0.218,0.191,���쐼,0.9,��
2016/02/08,22:30,0.452,0.263,0.471,0.429,0.396,0.216,0.191,-,CALM,��
2016/02/08,22:40,0.450,0.264,0.475,0.429,0.394,0.217,0.190,-,CALM,��
2016/02/08,22:50,0.450,0.263,0.476,0.432,0.393,0.217,0.190,-,CALM,��
2016/02/08,23:00,0.452,0.264,0.473,0.430,0.394,0.216,0.190,-,CALM,��
2016/02/08,23:10,0.451,0.263,0.473,0.430,0.395,0.217,0.189,-,CALM,��
2016/02/08,23:20,0.451,0.263,0.475,0.430,0.394,0.217,0.190,-,CALM,��
2016/02/08,23:30,0.451,0.265,0.475,0.429,0.394,0.216,0.190,-,CALM,��
2016/02/08,23:40,0.451,0.264,0.473,0.430,0.394,0.217,0.190,��,0.7,��
2016/02/08,23:50,0.451,0.263,0.473,0.428,0.394,0.217,0.191,��쐼,1.1,��
